Home   Weather   Linares   Past weeks

Flag for Spain Past Weather in Linares, Spain — Yesterday and Last 2 Weeks

Now
55 °F

Clear.


Feels Like: 55 °F
Forecast: 62 / 93 °F
Wind: No wind

Location: Granada / Aeropuerto

Current Time: Jul 22, 2017 at 7:08:34 am

Latest Report: Jul 22, 2017 at 6:30 am


Visibility: 10 mi

Pressure: 29.98 "Hg

Humidity: 55%

Dew Point: 39 °F

Location of LinaresLocation

Past Weather in Linares — Graph

°F

Linares Temperature Yesterday

Maximum temperature yesterday: 90 °F (at 3:30 pm)
Minimum temperature yesterday: 61 °F (at 6:30 am)
Average temperature yesterday: 76 °F

High & Low Weather Summary for the Past Weeks

 TemperatureHumidityPressure
High113 °F (Jul 12, 5:00 pm)83% (Jul 9, 7:30 am)30.15 "Hg (Jul 9, 7:30 am)
Low59 °F (Jul 8, 6:00 am)8% (Jul 14, 2:30 pm)29.86 "Hg (Jul 10, 6:30 pm)
Average83 °F37%30.03 "Hg
* Reported Jul 7 5:00 am — Jul 22 5:30 am, Linares. Weather by CustomWeather, © 2017

Note: Actual official high and low records may vary slightly from our data, if they occured in-between our weather recording intervals... More about our weather records

Advertising

Linares Weather History for the Previous 24 Hours

Scroll right to see more
 ConditionsComfort  
Time TempWeatherWind HumidityBarometerVisibility
5:30 am
Sat, Jul 22
59 °FRefreshingly cool.No wind48%29.98 "HgN/A
5:00 am59 °FRefreshingly cool.No wind48%29.98 "HgN/A
4:30 am61 °FRefreshingly cool.1 mph42%29.98 "HgN/A
4:00 am59 °FRefreshingly cool.No wind48%29.98 "HgN/A
3:30 am61 °FRefreshingly cool.2 mph45%29.98 "HgN/A
3:00 am61 °FRefreshingly cool.1 mph45%29.98 "HgN/A
2:30 am64 °FMild.No wind37%29.98 "HgN/A
2:00 am64 °FMild.No wind40%29.98 "HgN/A
1:30 am68 °FMild.No wind35%29.98 "HgN/A
1:00 am68 °FMild.1 mph33%29.98 "HgN/A
12:30 am72 °FMild.5 mph29%29.98 "HgN/A
12:00 am72 °FMild.7 mph29%29.98 "HgN/A
11:30 pm
Fri, Jul 21
73 °FClear.6 mph27%29.98 "Hg10 mi
11:00 pm75 °FClear.5 mph27%29.98 "Hg10 mi
10:30 pm75 °FPassing clouds.3 mph25%29.95 "HgN/A
10:00 pm77 °FClear.8 mph26%29.95 "Hg10 mi
9:30 pm81 °FSunny.10 mph23%29.92 "Hg10 mi
9:00 pm82 °FPassing clouds.13 mph21%29.92 "HgN/A
8:30 pm84 °FPassing clouds.14 mph20%29.92 "HgN/A
7:30 pm88 °FPassing clouds.16 mph18%29.92 "HgN/A
7:00 pm88 °FPassing clouds.15 mph19%29.89 "HgN/A
6:30 pm90 °FPassing clouds.15 mph20%29.89 "HgN/A
6:00 pm90 °FPassing clouds.14 mph20%29.92 "HgN/A
5:30 pm90 °FPassing clouds.14 mph21%29.92 "HgN/A
5:00 pm88 °FPassing clouds.13 mph24%29.89 "HgN/A
4:00 pm90 °FPassing clouds.14 mph21%29.92 "HgN/A
3:30 pm90 °FPassing clouds.10 mph21%29.92 "HgN/A
3:00 pm88 °FPassing clouds.7 mph25%29.92 "HgN/A
2:30 pm86 °FPassing clouds.6 mph27%29.92 "HgN/A
2:00 pm86 °FSunny.5 mph29%29.95 "Hg10 mi
1:30 pm84 °FSunny.3 mph31%29.95 "Hg10 mi
1:00 pm82 °FPassing clouds.5 mph32%29.95 "HgN/A
12:30 pm79 °FSunny.2 mph39%29.95 "Hg10 mi
12:00 pm79 °FSunny.1 mph37%29.95 "Hg10 mi
11:30 am77 °FSunny.2 mph39%29.98 "Hg10 mi
11:00 am73 °FSunny.3 mph44%29.98 "Hg10 mi
10:30 am72 °FSunny.1 mph50%29.98 "Hg10 mi
10:00 am70 °FSunny.1 mph53%29.98 "Hg10 mi
9:30 am68 °FPassing clouds.3 mph60%29.98 "HgN/A
9:00 am66 °FSunny.1 mph60%29.95 "Hg10 mi
8:30 am66 °FSunny.No wind60%29.95 "Hg10 mi
8:00 am64 °FSunny.2 mph60%29.95 "Hg10 mi
7:30 am63 °FSunny.1 mph59%29.95 "Hg10 mi
7:00 am63 °FClear.1 mph59%29.95 "Hg10 mi
Weather by CustomWeather, © 2017

See weather overviewHow to use our weather pages